Flag for U.S.A. Weather past 2 weeks in Miami, Florida, U.S.A.

75 °F

Passing clouds.

Feels Like: 77 °F
Forecast: 73 / 78 °F
Wind: 10 mph from Northeast

Location: Miami International Airport

Current Time: Nov 27, 2015 at 12:33:47 AM

Latest Report: Nov 26, 2015 at 10:53 PM

Visibility: 10 mi

Pressure: 30.21 "Hg

Humidity: 71%

Dew point: 65 °F

Location of MiamiLocation

Historic Weather in Miami — Graph


Miami temperature yesterday

Maximum temperature yesterday: 80 °F (at 11:53 AM)
Minimum temperature yesterday: 70 °F (at 6:53 AM)
Average temperature yesterday: 76 °F

Past Weeks' High & Low Weather Summary

High87 °F (Nov 13, 12:53 PM)100% (Nov 14, 1:53 PM)30.28 "Hg (Nov 14, 1:53 PM)
Low63 °F (Nov 24, 1:53 AM)47% (Nov 24, 10:53 AM)29.80 "Hg (Nov 22, 2:53 PM)
Average76 °F79%30.04 "Hg
* Reported Nov 11 9:53 PM — Nov 26 9:53 PM, Miami, Weather by CustomWeather, © 2015

Note: Actual official high and low records may vary slightly from our data, if they occured in-between our weather recording intervals... More about our weather records


Miami weather history for previous 24 hours

Time TempWeatherWind HumidityBarometerVisibility
9:53 PM
Thu, Nov 26
75 °FLight rain. Partly cloudy.16 mph74%30.21 "Hg10 mi
8:53 PM76 °FPartly cloudy.13 mph69%30.20 "Hg10 mi
7:53 PM76 °FPartly cloudy.12 mph67%30.21 "Hg10 mi
6:53 PM76 °FPassing clouds.12 mph64%30.20 "Hg10 mi
5:53 PM76 °FPassing clouds.9 mph60%30.20 "Hg10 mi
4:53 PM77 °FPassing clouds.13 mph58%30.20 "Hg10 mi
3:53 PM79 °FScattered clouds.14 mph54%30.20 "Hg10 mi
2:53 PM79 °FPartly sunny.17 mph58%30.21 "Hg10 mi
1:53 PM79 °FScattered clouds.15 mph58%30.22 "Hg10 mi
12:53 PM79 °FScattered clouds.17 mph54%30.24 "Hg10 mi
11:53 AM80 °FPassing clouds.13 mph52%30.27 "Hg10 mi
10:53 AM79 °FPassing clouds.20 mph56%30.28 "Hg10 mi
9:53 AM78 °FScattered clouds.22 mph62%30.28 "Hg10 mi
8:53 AM76 °FScattered clouds.17 mph67%30.27 "Hg10 mi
7:53 AM72 °FPartly sunny.10 mph81%30.24 "Hg10 mi
6:53 AM70 °FPartly sunny.9 mph93%30.23 "Hg10 mi
5:53 AM73 °FPartly cloudy.7 mph76%30.20 "Hg10 mi
4:53 AM74 °FPartly cloudy.12 mph74%30.19 "Hg10 mi
3:53 AM73 °FPassing clouds.9 mph71%30.19 "Hg10 mi
2:53 AM73 °FPassing clouds.12 mph76%30.19 "Hg10 mi
1:53 AM73 °FPartly cloudy.9 mph79%30.20 "Hg10 mi
12:53 AM72 °FLight rain. Partly cloudy.8 mph78%30.22 "Hg8 mi
Weather by CustomWeather, © 2015

See weather overviewHow to use our weather pages